ECMWFNIL_700_spd_000.txt.gz
Wind_Speed
18 19 19 18 17 16 15 15 15 15 15 15 14 13 12 12 13 14 15 16 17 18 18 18 17 17 17 17 16 17 17 17 17 18 18 18 18 19 20 21 23 24
18 18 17 17 17 16 16 16 16 16 16 16 15 14 13 13 13 13 13 14 15 16 18 18 19 19 19 18 18 18 19 19 19 19 19 19 19 19 19 20 21 22
16 16 16 16 16 17 17 17 17 17 17 17 16 16 15 14 14 14 14 14 14 15 17 18 19 19 19 19 19 19 20 21 21 21 20 20 21 21 21 21 22 22
15 14 14 15 15 16 16 17 18 18 18 18 18 17 17 17 16 16 16 16 16 16 17 18 18 19 19 19 19 20 20 21 22 22 22 22 23 23 24 24 24 24
14 13 13 14 15 16 16 17 18 19 19 19 19 19 19 19 19 19 19 19 19 19 19 19 19 19 19 19 20 20 21 22 22 23 23 23 24 25 25 26 26 26
15 14 13 14 15 16 17 18 18 19 19 19 19 19 19 19 20 20 21 21 21 21 21 20 20 20 20 20 20 21 22 23 24 25 25 25 25 26 27 28 28 28
16 15 14 15 16 17 18 18 19 20 20 19 19 19 19 19 20 21 21 22 22 22 22 22 22 22 22 22 22 22 23 25 26 27 28 28 28 29 29 29 30 29
18 17 16 17 18 18 19 19 21 22 21 20 19 20 20 20 21 21 22 22 22 23 23 23 23 23 23 23 23 24 25 25 27 28 29 31 32 32 32 33 32 31
20 19 19 19 19 20 20 21 22 23 22 21 20 20 21 21 22 22 22 23 23 24 24 24 24 24 24 24 24 25 25 26 27 28 29 31 33 34 35 36 36 35
22 21 21 20 21 22 22 22 23 24 23 22 22 22 22 22 23 23 23 24 24 25 25 25 25 25 26 26 27 27 28 28 29 30 30 31 32 34 36 37 38 37
25 23 22 21 22 23 23 24 24 25 24 24 23 23 23 24 24 24 25 25 25 26 26 26 26 27 28 29 29 30 30 31 31 32 32 32 33 34 35 37 38 38
27 25 22 22 23 24 25 25 25 25 25 25 25 24 25 25 25 26 26 26 26 26 26 27 28 29 30 31 32 33 33 34 34 35 34 34 34 34 35 36 38 39
28 26 24 23 24 25 26 26 26 27 27 26 26 26 26 27 27 27 27 27 27 27 27 28 29 31 32 33 34 35 37 38 38 38 38 37 36 36 36 37 38 39
29 28 26 26 26 26 27 27 28 28 29 28 28 28 28 29 29 29 29 28 28 28 29 30 31 32 34 35 36 38 40 41 41 41 40 39 38 37 37 37 38 39
30 30 28 28 28 27 27 28 29 30 30 30 30 30 30 30 30 30 30 30 29 30 30 31 32 34 35 37 39 41 42 42 42 41 40 40 39 38 37 37 38 39
30 30 29 28 28 27 27 28 29 31 32 32 32 32 32 32 32 32 32 31 31 31 32 33 35 36 37 39 41 42 42 42 42 42 41 40 40 39 38 38 38 39
36 32 28 27 26 25 26 28 30 31 32 33 33 33 33 33 32 33 33 33 34 34 34 36 37 38 40 41 41 42 42 43 43 43 42 42 41 40 40 39 39 39
39 35 28 24 23 25 27 30 31 32 33 33 33 34 33 33 33 34 35 36 36 37 37 38 40 41 42 42 42 42 43 43 44 44 43 43 42 42 41 41 40 40
37 34 27 23 23 26 30 31 32 32 33 33 34 33 32 33 34 35 36 37 38 39 40 41 42 42 42 43 43 43 43 44 44 44 44 44 43 42 42 42 42 42
37 34 29 26 25 28 31 32 32 33 33 34 33 33 33 33 34 35 36 38 39 40 41 42 42 42 42 43 43 43 43 44 44 45 45 44 44 43 42 42 42 43
41 38 33 29 27 27 30 31 32 33 34 34 34 33 33 34 34 35 36 38 39 41 42 42 41 41 41 42 42 43 43 44 45 46 46 45 44 43 43 43 43 43
41 38 31 27 26 26 28 30 32 33 34 33 32 32 32 33 34 35 36 38 39 40 40 41 41 41 41 42 42 43 44 45 46 47 47 46 45 44 44 44 44 44
35 31 24 22 24 25 27 29 31 32 31 29 29 30 32 34 34 35 36 36 38 38 40 40 40 40 40 41 41 42 44 46 47 47 48 48 47 46 46 46 46 46
33 27 20 20 23 25 26 28 28 28 27 27 28 31 33 33 34 34 35 36 37 38 40 40 40 39 39 39 40 42 43 45 47 48 49 49 49 49 48 48 49 49
31 24 20 21 24 25 25 25 25 25 25 27 28 30 32 33 34 34 35 36 37 38 38 39 38 38 38 39 40 41 43 45 47 49 50 51 51 51 51 51 52 52
23 19 19 22 24 25 24 25 25 25 25 25 27 29 32 33 34 34 34 34 35 35 35 35 36 37 37 39 40 42 43 45 47 50 51 52 52 53 54 54 54 55

ECMWFNIL_700_spd_003.txt.gz
Wind_Speed
13 13 13 13 13 14 14 13 12 12 12 12 12 11 11 12 14 15 15 15 16 16 16 17 17 17 17 17 17 17 17 17 17 18 18 19 19 20 20 21 21 21
13 13 12 11 13 13 13 12 12 12 12 11 11 11 11 12 13 14 15 15 16 17 17 18 18 18 18 18 19 19 19 19 19 19 19 20 20 20 21 21 21 21
13 13 12 11 12 13 12 11 12 12 12 12 12 12 11 12 12 13 14 14 15 15 16 17 17 18 18 19 20 20 21 21 22 21 21 21 21 21 22 22 22 23
12 13 12 12 13 13 12 11 12 13 14 14 13 13 13 13 13 14 14 14 14 14 14 15 15 16 17 18 19 19 20 21 22 23 23 22 22 23 23 23 24 24
13 13 13 13 13 13 13 12 13 14 15 15 15 15 15 15 15 15 15 15 15 14 14 14 15 16 16 17 17 18 19 19 20 21 22 23 23 23 24 24 25 26
13 14 14 14 14 15 14 14 14 15 16 17 18 18 18 18 17 17 16 16 16 16 15 15 15 15 15 16 16 17 17 18 18 19 20 21 22 23 24 24 25 26
15 15 15 15 15 15 15 15 15 16 18 19 20 21 21 20 20 19 19 18 18 17 17 17 16 15 15 15 15 16 16 16 17 17 18 20 21 23 24 25 26 26
18 17 17 17 17 17 16 16 16 17 19 20 21 23 23 23 22 22 21 21 21 20 20 19 18 17 17 16 16 16 16 16 17 17 18 19 21 23 24 26 28 29
21 20 20 19 19 19 18 17 18 19 20 20 22 23 24 24 24 24 24 23 24 24 23 23 22 20 20 19 18 18 18 18 18 19 20 21 23 24 25 27 28 30
25 23 23 23 21 21 22 22 21 22 22 21 22 23 24 25 26 25 25 26 26 26 26 25 25 23 22 21 21 20 20 20 21 22 23 24 25 26 27 28 29 30
30 26 24 25 25 24 25 26 26 25 25 24 23 23 24 26 26 26 27 27 28 28 28 28 27 26 25 24 23 23 23 23 24 25 25 26 27 28 29 30 31 32
32 31 28 27 27 28 29 29 28 28 28 27 26 25 25 26 27 27 28 29 30 30 30 30 29 29 28 27 26 26 26 26 27 27 28 29 30 30 32 33 33 33
29 30 30 31 30 31 33 32 31 30 31 30 29 27 26 26 28 29 31 31 31 31 32 31 31 31 30 29 29 29 29 29 29 30 30 31 32 33 34 34 35 35
31 31 31 32 33 34 35 35 34 34 34 32 31 29 28 28 30 31 32 33 33 33 33 33 33 32 32 32 32 31 32 32 32 32 33 33 34 35 35 36 36 36
40 38 36 35 34 37 40 39 38 37 36 34 31 30 30 31 32 33 33 34 35 35 35 34 34 35 34 34 34 34 34 35 35 36 36 37 37 37 37 37 37 37
38 40 44 43 38 40 44 44 43 41 38 35 33 32 32 32 32 33 34 35 36 36 36 36 36 36 36 35 35 36 37 37 38 39 40 40 40 39 39 38 38 38
35 40 48 48 44 44 46 46 46 44 41 38 35 33 33 32 32 33 35 36 37 37 38 38 38 38 37 37 37 38 39 39 40 41 41 41 41 41 41 40 40 40
37 41 47 47 47 47 43 42 44 44 43 39 35 33 32 32 32 33 34 35 37 38 39 39 39 38 38 38 39 39 40 41 42 42 42 42 42 42 42 41 41 41
37 39 42 42 45 48 44 41 41 41 41 39 36 34 32 32 32 32 34 36 38 39 39 39 39 39 39 39 40 40 41 42 42 43 43 43 43 42 42 42 42 42
34 35 37 39 44 51 50 45 43 41 40 38 36 33 32 31 31 32 34 37 38 39 39 39 39 39 39 40 41 41 42 42 42 43 43 43 43 43 43 43 43 43
34 34 37 41 45 51 51 49 48 44 39 36 34 32 30 30 31 33 35 37 38 38 38 38 38 39 40 40 41 42 42 42 43 43 43 44 44 44 44 44 44 44
37 37 39 41 45 50 50 49 48 42 36 33 31 29 29 30 32 34 35 36 37 36 36 36 37 39 40 41 41 42 42 43 43 44 45 45 45 45 45 45 46 45
39 40 41 41 46 51 49 45 41 34 29 28 27 27 29 30 32 33 35 35 35 35 35 36 37 38 39 40 41 42 43 44 45 46 46 47 46 46 47 47 47 47
38 38 37 38 43 44 41 37 31 23 22 23 25 27 29 30 31 33 33 34 34 34 34 36 37 37 38 40 41 42 43 45 46 47 48 48 48 48 48 48 49 49
34 32 32 37 42 41 37 31 24 19 21 22 23 26 27 29 31 32 32 33 33 33 33 35 36 37 38 39 40 41 43 45 46 48 48 49 49 49 50 50 50 50
29 29 31 37 41 40 33 25 20 19 20 21 22 25 27 29 31 31 32 33 32 32 33 34 35 36 37 38 39 40 42 44 46 48 49 50 51 51 51 52 52 51

ECMWFNIL_700_spd_006.txt.gz
Wind_Speed
6 6 6 6 7 7 8 9 10 10 9 8 8 9 9 11 12 12 12 12 13 13 14 14 14 15 15 15 16 16 16 16 17 17 17 17 17 17 17 17 17 18
6 6 6 6 7 8 8 9 9 9 9 9 8 9 9 10 11 11 12 13 13 14 14 15 15 16 16 17 17 18 18 18 18 18 18 18 18 18 18 18 18 19
6 6 6 5 6 8 10 10 9 9 9 9 9 9 9 10 10 11 11 12 13 14 15 16 16 17 17 18 18 18 18 18 18 18 18 18 18 18 18 18 18 19
8 7 6 6 7 9 10 10 10 10 10 9 9 9 10 11 12 12 12 12 12 13 15 16 17 17 18 18 18 18 18 18 18 18 18 17 17 17 17 17 18 18
11 10 8 8 8 10 11 11 11 11 11 10 10 10 10 12 13 13 13 13 13 13 14 15 16 17 18 18 18 18 19 19 18 18 18 18 17 17 16 16 16 17
14 13 12 12 11 12 13 12 12 13 13 13 13 12 12 13 13 14 14 14 14 14 15 15 16 17 17 17 18 18 18 19 18 18 18 18 17 17 16 15 15 16
16 16 15 15 15 16 16 15 15 15 15 15 16 15 15 16 16 15 15 15 15 15 16 17 17 17 17 17 18 18 18 18 18 18 18 17 17 16 16 16 16 16
18 18 18 18 19 19 19 19 19 18 18 18 18 18 19 19 19 18 17 17 16 16 17 18 18 18 18 18 18 19 19 19 18 18 18 17 17 17 17 18 18 19
20 19 20 20 21 22 23 23 23 22 22 22 22 22 23 23 23 22 20 20 19 19 19 18 19 19 20 20 19 19 19 19 19 19 18 18 18 18 19 19 20 21
23 21 21 22 23 24 25 26 27 27 26 26 26 27 27 26 26 25 24 23 22 22 22 20 20 20 20 20 20 20 20 20 20 19 19 19 20 21 21 22 23 23
25 22 22 23 24 26 28 29 30 30 31 30 31 31 31 30 29 28 27 26 26 26 25 24 23 23 22 22 21 21 22 22 21 21 21 22 22 23 24 25 25 25
29 26 23 23 25 28 30 32 33 34 34 34 35 35 35 34 33 32 30 29 29 29 29 28 27 26 25 24 23 23 24 24 24 24 24 25 25 26 26 27 27 28
33 30 25 24 25 29 33 35 36 36 37 38 38 38 38 38 36 35 33 32 32 32 31 30 30 29 28 26 26 26 26 26 26 26 27 27 27 28 28 29 29 30
33 32 31 29 28 32 37 39 36 36 39 41 42 42 41 40 39 38 37 35 35 34 33 33 33 32 31 29 28 28 28 28 28 29 29 29 29 29 30 31 31 31
32 32 33 34 33 35 39 41 37 36 39 42 44 46 44 42 42 41 40 38 37 36 35 34 34 34 33 31 30 30 30 31 30 30 31 31 31 31 32 33 33 33
32 32 33 36 38 38 39 40 38 38 42 44 45 46 46 44 43 43 42 41 39 38 37 37 36 34 33 32 32 32 32 32 32 32 32 33 33 33 33 33 34 34
32 32 33 36 39 40 41 40 39 40 44 46 45 44 44 44 45 45 44 42 41 41 41 40 37 35 33 32 32 33 33 34 34 34 34 34 34 35 35 34 35 35
31 31 32 35 38 40 40 40 40 41 42 43 44 44 43 43 45 46 45 44 43 43 42 40 37 35 33 32 33 34 34 35 35 35 35 35 36 36 36 36 36 36
31 30 30 31 33 35 37 38 41 42 42 41 43 46 45 42 42 45 46 46 46 45 43 40 37 35 33 33 34 34 35 35 36 36 36 37 37 37 37 38 38 38
36 33 31 30 30 31 32 34 37 39 41 42 43 46 48 46 43 44 47 48 47 46 43 40 37 35 35 35 35 35 36 37 38 38 38 38 38 38 38 39 40 40
38 38 36 35 33 31 30 31 33 35 37 40 43 46 48 49 47 46 47 47 46 45 43 40 37 36 36 36 36 36 37 38 39 39 40 39 39 39 40 41 41 42
37 37 38 38 37 36 35 33 34 34 34 36 41 45 48 50 50 47 46 46 45 43 41 38 36 36 37 37 37 38 38 39 40 40 41 41 41 41 41 42 43 44
37 36 36 36 36 37 37 35 35 36 35 35 40 45 48 49 49 47 46 44 41 38 37 35 35 36 37 37 38 39 39 40 41 41 42 42 42 42 42 43 44 45
36 36 35 35 33 32 32 32 33 36 38 39 42 45 48 50 49 46 42 38 33 31 31 33 34 35 36 37 38 39 40 41 41 42 42 43 43 44 44 44 45 46
34 34 33 33 32 29 28 29 32 36 39 41 44 46 48 49 46 40 35 31 28 27 29 31 33 35 36 37 38 39 40 41 42 43 44 44 45 45 46 46 46 47
33 33 32 31 30 28 27 30 34 37 41 44 46 47 45 40 36 34 31 28 27 27 29 31 33 34 35 36 37 38 40 42 43 44 45 46 46 47 47 47 47 48

ECMWFNIL_700_spd_009.txt.gz
Wind_Speed
6 5 4 4 3 3 4 5 6 8 9 10 11 10 10 10 10 10 9 8 7 7 7 8 9 10 11 11 12 13 14 14 14 14 14 14 14 15 14 14 15 15
7 6 5 5 4 3 3 3 5 6 7 9 10 10 10 10 10 11 11 10 10 9 8 8 8 9 10 11 11 12 13 14 15 15 15 15 16 16 16 16 16 17
11 8 7 6 6 7 7 6 6 6 7 7 8 8 9 10 10 11 12 12 12 11 10 10 9 10 10 11 11 12 13 14 14 15 15 15 15 15 15 16 16 16
14 10 9 8 8 10 10 10 9 9 9 9 8 8 8 10 10 11 12 13 13 13 13 12 12 11 11 11 12 12 13 14 14 15 15 15 16 15 15 14 14 14
15 13 12 11 11 12 12 12 12 11 12 12 11 10 10 10 11 11 11 12 12 13 13 13 13 13 13 12 12 12 12 13 14 14 15 15 16 15 15 15 15 14
19 16 15 15 14 14 14 14 14 14 14 15 15 14 13 12 13 13 13 12 12 12 13 13 14 14 14 14 13 13 12 12 13 13 14 15 16 15 15 15 15 14
21 17 16 17 17 16 16 16 16 16 16 18 18 18 17 16 16 16 15 15 14 14 14 15 15 15 15 15 15 15 14 13 13 13 14 15 16 16 16 16 15 15
21 19 18 19 19 19 18 18 19 19 19 20 21 21 21 20 20 19 19 18 17 17 17 17 17 16 16 16 16 16 15 15 14 14 14 15 15 16 16 17 17 17
21 21 20 20 21 21 21 21 21 21 22 23 24 24 24 24 24 23 22 21 21 20 20 20 20 19 18 18 18 17 17 17 16 16 16 16 16 16 17 18 18 19
23 23 22 22 22 22 23 23 23 24 25 26 27 28 28 27 27 27 27 25 24 23 23 23 23 23 22 21 20 20 19 19 18 18 19 19 18 19 19 20 20 21
26 26 26 24 23 23 24 24 25 27 28 29 30 31 31 31 30 30 30 30 28 27 27 27 27 26 26 25 25 24 23 22 21 20 20 20 21 21 22 22 23 23
26 27 28 27 26 25 25 26 27 29 30 32 33 34 35 34 33 33 33 33 32 31 31 30 30 30 29 29 28 28 28 26 24 23 22 22 22 23 24 24 25 26
26 27 29 30 30 30 29 29 30 31 33 34 37 39 38 35 34 35 35 36 36 35 35 34 33 33 32 32 32 32 32 31 29 28 26 25 24 24 25 26 27 28
29 30 31 31 32 33 34 33 33 34 36 37 39 41 40 36 36 38 37 37 38 38 38 38 36 35 35 35 35 36 35 34 33 32 30 29 28 27 27 27 28 29
29 31 33 34 34 35 35 36 36 37 39 40 40 40 39 38 40 42 40 38 38 39 38 38 38 38 37 37 38 38 38 37 36 35 34 33 32 30 29 29 29 30
31 32 34 36 37 37 37 37 38 39 41 42 41 41 39 39 40 41 40 39 40 39 37 36 37 39 39 39 39 40 39 38 38 38 37 36 35 34 32 31 31 31
34 33 33 35 37 39 39 39 40 41 42 44 44 43 41 39 38 37 37 40 43 42 38 37 38 39 40 40 40 40 40 40 40 40 40 39 38 37 36 34 33 32
32 33 33 34 35 37 38 40 41 42 43 45 45 44 42 41 39 38 37 39 42 43 41 40 40 39 40 41 41 40 40 41 42 42 42 42 40 39 39 38 36 35
30 31 32 33 34 35 37 38 40 42 43 44 44 43 42 41 40 39 37 37 39 41 43 43 43 42 41 41 40 40 41 42 43 43 43 43 42 41 41 41 39 38
30 31 31 31 33 35 36 37 38 38 39 40 40 40 40 39 38 37 35 35 37 41 44 45 45 45 44 42 42 41 42 42 44 44 44 44 44 43 42 42 41 40
30 31 32 32 33 34 35 37 38 38 37 36 36 36 35 36 35 34 33 33 35 40 43 45 45 47 47 46 45 44 44 44 45 45 45 45 45 44 43 42 41 41
30 31 33 34 35 36 36 36 37 38 37 36 35 34 34 33 33 34 33 31 34 40 44 45 46 47 48 48 48 47 47 46 45 45 45 44 44 44 43 42 42 42
31 32 33 34 36 37 38 38 37 37 37 37 36 37 37 36 36 36 34 32 35 40 43 44 44 44 46 48 49 49 49 48 47 46 44 44 44 44 43 43 43 43
33 33 34 35 35 36 36 37 38 37 35 35 35 36 38 39 38 36 34 35 39 42 42 41 42 43 45 48 49 50 50 49 49 47 45 44 44 44 43 43 44 44
34 35 36 36 36 35 34 34 35 36 34 34 33 33 35 37 35 32 33 37 39 40 40 41 42 45 47 48 49 48 47 47 47 46 44 44 44 44 44 44 44 44
36 36 36 37 36 34 32 32 33 32 32 32 32 31 31 32 33 34 37 38 38 39 40 42 44 45 45 43 42 42 42 43 43 43 42 43 43 44 44 44 44 45

ECMWFNIL_700_spd_015.txt.gz
Wind_Speed
11 10 7 5 4 4 4 4 3 2 1 1 4 5 7 9 9 9 9 9 8 7 6 5 4 3 3 2 3 4 5 6 6 7 8 9 10 11 12 12 12 12
13 12 10 8 6 6 6 6 5 4 3 2 1 3 5 6 7 8 9 9 9 9 8 7 6 5 4 4 3 3 3 3 4 5 6 6 8 9 11 12 13 14
16 14 13 12 10 9 8 8 8 7 6 5 4 2 1 2 4 5 6 7 7 8 9 9 8 8 7 6 6 5 5 5 5 4 5 5 5 6 7 9 11 12
18 17 15 15 14 13 12 12 11 10 9 8 7 6 4 2 1 1 2 3 4 5 6 6 7 7 8 8 8 8 8 8 7 7 7 7 6 6 6 6 7 8
20 19 18 18 18 17 17 16 14 13 12 12 11 9 8 6 5 4 3 2 2 3 3 4 4 5 6 7 8 9 10 10 10 10 10 10 10 9 9 8 7 7
23 22 21 20 21 21 20 19 18 16 15 15 15 13 12 10 9 8 7 6 6 5 5 5 5 5 6 6 7 7 9 10 11 11 11 12 13 13 13 12 11 11
27 26 24 23 23 23 22 21 20 19 18 18 18 17 16 14 13 12 11 10 10 9 9 9 8 9 9 9 9 8 9 10 11 12 12 12 13 13 14 15 15 14
31 30 27 27 27 26 25 24 23 22 20 19 21 21 20 18 17 16 15 14 14 14 13 12 12 12 12 12 12 12 11 12 13 13 13 13 14 14 14 14 15 15
34 33 30 30 29 28 28 28 27 26 23 21 22 22 23 23 21 19 18 18 18 18 17 16 15 15 15 16 16 16 15 15 15 16 16 16 16 16 16 15 15 16
32 32 31 32 32 32 32 31 30 29 27 25 24 24 24 25 24 23 22 21 20 20 20 20 19 19 19 19 19 19 18 17 18 19 19 19 19 19 19 19 18 18
26 27 27 30 32 34 34 34 32 30 29 29 27 26 26 26 26 26 25 25 23 22 22 23 24 23 22 22 22 22 21 20 20 21 22 22 23 23 23 22 22 21
29 29 27 27 29 30 31 35 34 29 27 29 29 29 30 29 27 27 27 27 27 26 25 26 27 27 26 25 25 25 24 24 24 24 24 24 25 25 25 25 24 24
31 31 31 31 31 32 32 31 28 24 26 30 32 33 34 32 28 27 28 30 30 30 30 29 30 30 29 27 28 27 26 26 27 28 28 28 27 28 29 27 27 26
29 28 31 33 31 32 32 29 27 27 29 32 33 33 32 30 27 28 30 32 32 32 33 33 33 34 32 30 30 30 28 28 29 31 31 31 31 31 32 32 31 30
28 27 30 30 27 26 27 27 28 30 30 30 29 26 25 25 26 29 32 35 35 35 36 37 36 37 37 35 33 32 32 31 31 32 33 34 33 33 34 34 35 34
24 24 26 26 24 24 24 24 26 27 29 30 28 25 24 25 28 31 33 36 38 37 37 40 40 39 40 39 35 35 35 35 34 34 34 35 34 34 35 35 36 37
23 24 24 25 26 27 28 28 29 31 33 34 32 29 29 29 31 33 35 38 38 36 36 41 43 43 43 42 39 39 40 39 38 37 37 36 36 36 37 38 39 40
25 25 25 26 27 29 30 31 32 33 35 36 35 33 32 32 33 34 36 38 39 38 37 39 41 41 40 39 38 38 39 40 40 41 40 38 38 38 38 38 40 41
25 25 25 26 27 28 30 31 32 33 34 35 36 35 34 35 35 36 37 37 39 39 37 39 41 39 35 34 34 35 36 37 39 41 41 40 40 40 39 38 39 40
24 24 24 25 26 27 28 29 30 32 33 34 34 34 35 35 35 36 37 37 37 37 37 40 42 37 32 32 33 34 36 37 39 42 41 40 41 42 41 39 38 38
25 25 25 25 25 25 26 27 28 29 30 30 31 32 32 32 32 33 34 34 34 33 34 40 40 33 30 31 33 34 36 37 39 41 40 39 41 42 41 39 38 38
26 26 26 26 26 26 26 27 28 28 29 30 30 31 31 31 32 32 33 33 32 31 34 38 37 32 31 32 33 35 36 36 38 39 38 37 38 38 38 38 39 39
27 27 26 26 26 26 27 28 28 29 31 31 32 33 33 32 32 33 33 32 32 34 37 37 34 33 34 35 35 36 36 36 36 37 36 35 36 36 36 37 39 39
27 26 25 25 25 25 26 27 28 29 31 32 33 34 33 33 35 35 34 32 33 36 38 37 35 36 37 37 38 39 38 37 36 37 36 36 37 37 36 36 37 38
28 27 27 26 26 26 27 27 28 30 31 32 34 34 32 33 37 38 37 36 36 37 38 36 36 38 38 39 40 40 40 39 39 40 40 39 39 37 35 35 37 38
32 32 31 30 30 30 30 30 30 31 32 33 35 34 33 34 37 39 39 38 38 38 38 37 37 38 39 40 41 41 41 40 39 40 41 40 39 36 35 36 39 40